User: anonymous   Login
Location: Unspecified
(0.0000°N, 0.0000°E)
Time: 08:54:17
(UTC+00:00)
Language:

NOSS 3-2 (A) - Orbit

View from above orbital plane
View from above orbital plane
View from above satellite
View from above satellite

Ground track
Ground track

The orbit data is extracted from the following two-line orbital elements,

1 28095U 03054A   17227.92707031 0.00000020  00000-0  27059-4 0    06
2 28095  63.4214 159.7330 0310000 358.1230   1.8770 13.41351444    03
Epoch (UTC): 15 August 2017 22:14:58
Eccentricity: 0.0310000
inclination: 63.4214°
perigee height: 872 km
apogee height: 1336 km
right ascension of ascending node: 159.7330°
argument of perigee: 358.1230°
revolutions per day: 13.41351444
mean anomaly at epoch: 1.8770°
orbit number at epoch: 0

The dashed part of the orbit path shows where the satellite is in the earth's shadow,  

DLR